Location: La Bastide
(43.1661°N, 1.2755°E)
Time: 18:47:37
(UTC+00:00)

ISS - Pass Details

Date: 22 February 2026
Orbit: 416 x 427 km, 51.6° (Epoch: 6 March)

Event Time Altitude Azimuth Distance (km) Brightness Sun altitude
Exits shadow 04:00:55 12° 43° (NE) 1,402 -0.5 -30.0°
Drops below altitude 10° 04:01:10 10° 45° (NE) 1,497 -0.3 -30.0°
Sets 04:03:24 0° 55° (NE) 2,360 1.1 -29.6°
